TimeCDT,TemperatureF,Dew PointF,Humidity,Sea Level PressureIn,VisibilityMPH,Wind Direction,Wind SpeedMPH,Gust SpeedMPH,PrecipitationIn,Events,Conditions,WindDirDegrees,DateUTC
12:55 AM,64.9,62.1,90,29.88,10.0,Calm,Calm,-,0.01,Rain,Light Rain,0,2013-06-22 05:55:00
1:55 AM,64.0,62.1,93,29.92,9.0,SW,10.4,-,0.13,Rain,Light Rain,230,2013-06-22 06:55:00
2:15 AM,62.6,62.6,100,29.91,2.0,South,5.8,-,0.16,Rain,Heavy Rain,180,2013-06-22 07:15:00
2:26 AM,64.4,62.6,94,29.91,7.0,Calm,Calm,-,0.23,Rain,Light Rain,0,2013-06-22 07:26:00
2:55 AM,63.0,63.0,100,29.86,6.0,ENE,3.5,-,0.28,Rain,Light Rain,70,2013-06-22 07:55:00
3:55 AM,63.0,63.0,100,29.78,10.0,NNE,15.0,-,0.04,,Scattered Clouds,20,2013-06-22 08:55:00
4:55 AM,64.0,63.0,96,29.84,10.0,SE,8.1,-,N/A,,Partly Cloudy,140,2013-06-22 09:55:00
5:55 AM,63.0,63.0,100,29.88,10.0,West,3.5,-,0.01,,Clear,260,2013-06-22 10:55:00
6:28 AM,64.4,62.6,94,29.91,10.0,West,5.8,-,N/A,,Mostly Cloudy,280,2013-06-22 11:28:00
6:55 AM,64.9,64.0,97,29.89,10.0,NW,5.8,-,N/A,,Overcast,310,2013-06-22 11:55:00
7:55 AM,66.0,64.9,96,29.85,10.0,NNE,9.2,-,N/A,,Overcast,20,2013-06-22 12:55:00
8:48 AM,66.2,64.4,94,29.88,10.0,NE,9.2,-,N/A,,Overcast,40,2013-06-22 13:48:00
8:55 AM,68.0,66.0,93,29.86,10.0,NNE,8.1,-,N/A,,Overcast,30,2013-06-22 13:55:00
9:31 AM,69.8,66.2,88,29.86,10.0,NE,12.7,-,N/A,,Mostly Cloudy,40,2013-06-22 14:31:00
9:42 AM,69.8,66.2,88,29.86,10.0,NE,13.8,-,N/A,,Scattered Clouds,40,2013-06-22 14:42:00
9:55 AM,71.1,66.0,84,29.85,10.0,ENE,13.8,-,N/A,,Partly Cloudy,70,2013-06-22 14:55:00
10:13 AM,71.6,66.2,83,29.86,10.0,NE,13.8,-,N/A,,Mostly Cloudy,50,2013-06-22 15:13:00
10:38 AM,73.4,66.2,78,29.87,10.0,East,10.4,-,N/A,,Scattered Clouds,90,2013-06-22 15:38:00
10:55 AM,73.0,66.0,79,29.86,10.0,SE,6.9,-,N/A,,Scattered Clouds,130,2013-06-22 15:55:00
11:05 AM,73.4,66.2,78,29.88,10.0,SE,8.1,-,N/A,,Mostly Cloudy,130,2013-06-22 16:05:00
11:55 AM,75.0,66.0,73,29.88,10.0,SE,8.1,-,N/A,,Mostly Cloudy,140,2013-06-22 16:55:00
12:07 PM,75.2,64.4,69,29.90,10.0,SE,4.6,-,N/A,,Mostly Cloudy,140,2013-06-22 17:07:00
12:53 PM,78.8,64.4,61,29.89,10.0,Variable,5.8,-,N/A,,Mostly Cloudy,0,2013-06-22 17:53:00
12:55 PM,78.1,64.9,64,29.87,10.0,SSE,4.6,-,N/A,,Mostly Cloudy,150,2013-06-22 17:55:00
1:44 PM,78.8,66.2,65,29.88,10.0,Variable,3.5,-,N/A,,Overcast,0,2013-06-22 18:44:00
1:55 PM,77.0,66.0,69,29.87,10.0,Variable,3.5,-,N/A,,Overcast,0,2013-06-22 18:55:00
2:02 PM,78.8,66.2,65,29.88,10.0,Calm,Calm,-,N/A,,Mostly Cloudy,0,2013-06-22 19:02:00
2:10 PM,78.8,66.2,65,29.88,10.0,Calm,Calm,-,N/A,,Mostly Cloudy,0,2013-06-22 19:10:00
2:55 PM,78.1,64.9,64,29.84,10.0,ESE,3.5,-,N/A,,Scattered Clouds,120,2013-06-22 19:55:00
3:18 PM,78.8,66.2,65,29.86,10.0,Calm,Calm,-,N/A,,Scattered Clouds,0,2013-06-22 20:18:00
3:28 PM,78.8,66.2,65,29.86,10.0,Variable,4.6,-,N/A,,Mostly Cloudy,0,2013-06-22 20:28:00
3:45 PM,78.8,66.2,65,29.85,10.0,SSE,4.6,-,N/A,,Overcast,160,2013-06-22 20:45:00
3:55 PM,79.0,66.9,66,29.83,10.0,South,6.9,-,N/A,,Mostly Cloudy,190,2013-06-22 20:55:00
4:55 PM,79.0,66.0,64,29.80,10.0,ESE,4.6,-,N/A,,Clear,120,2013-06-22 21:55:00
5:11 PM,80.6,66.2,61,29.81,10.0,ESE,9.2,-,N/A,,Partly Cloudy,120,2013-06-22 22:11:00
5:55 PM,80.1,66.9,64,29.76,10.0,ESE,10.4,-,N/A,,Clear,110,2013-06-22 22:55:00
6:55 PM,79.0,66.0,64,29.75,10.0,SE,9.2,-,N/A,,Clear,130,2013-06-22 23:55:00
7:55 PM,78.1,66.9,68,29.75,10.0,SSE,9.2,-,N/A,,Partly Cloudy,150,2013-06-23 00:55:00
8:19 PM,75.2,66.2,73,29.78,10.0,SSE,6.9,-,N/A,,Partly Cloudy,150,2013-06-23 01:19:00
8:55 PM,75.0,68.0,79,29.77,10.0,SE,6.9,-,N/A,,Overcast,140,2013-06-23 01:55:00
9:55 PM,73.0,68.0,84,29.73,10.0,SE,5.8,-,N/A,,Partly Cloudy,130,2013-06-23 02:55:00
10:55 PM,72.0,68.0,87,29.70,10.0,ESE,6.9,-,N/A,,Mostly Cloudy,110,2013-06-23 03:55:00
11:31 PM,71.6,68.0,88,29.67,10.0,ESE,10.4,-,0.00,Rain-Thunderstorm,Light Rain,110,2013-06-23 04:31:00
11:55 PM,71.1,68.0,90,29.64,9.0,ESE,11.5,21.9,0.01,Rain-Thunderstorm,Light Thunderstorms and Rain,110,2013-06-23 04:55:00